Tracking 29059 objects as of 19-Jun-2024
HD Live streaming from Space Station
objects crossing your sky now

DELTA 1 DEB

Track DELTA 1 DEB now!
10-day predictions


NORAD ID: 9313
Int'l Code: 1975-004EQ
Perigee: 708.9 km
Apogee: 831.2 km
Inclination: 97.6 °
Period: 100.1 minutes
Semi major axis: 7141 km
RCS: 0.0187 m2 (small)
Launch date: January 22, 1975
Source: United States (US)
Launch site: AIR FORCE WESTERN TEST RANGE (AFWTR)

Note: This is SATELLITE DEBRIS
Your satellite tracking list
Your tracking list is empty




NASA's NSSDC Master Catalog

Two Line Element Set (TLE):
1  9313U 75004EQ  24171.18586547  .00000274  00000-0  97540-4 0  9993
2  9313  97.6210  78.7486 0085625 241.5086 117.7461 14.38665489531274
Source of the keplerian elements: AFSPC